Skip Page Navigation
NASA JPL Caltech
NASA Logo - Jet Propulsion Laboratory + View the NASA Portal
+ Center for Near-Earth Object Studies
JPL Home Earth Solar System Stars & Galaxies Technology
JPL Solar System Dynamics
BODIES ORBITS EPHEMERIDES TOOLS PHYSICAL DATA DISCOVERY FAQ SITE MAP

Significant website upgrade scheduled for September 27. More details available here.

JPL Small-Body Database Browser
Search: [ help ]  
(1998 SU4)
Classification: Apollo [NEO, PHA]          SPK-ID: 3014110
Ephemeris | Orbit Diagram | Orbital Elements | Mission Design | Physical Parameters | Close-Approach Data ]

[ hide orbit diagram ]

For accurate long-term ephemerides, please instead use our Horizons system.This orbit viewer was implemented using two-body methods, and hence should not be used for determining accurate long-term trajectories (over several years or decades) or planetary encounter circumstances.


Orbital Elements at Epoch 2459396.5 (2021-Jul-01.0) TDB
Reference: JPL 27 (heliocentric ecliptic J2000)
 Element Value Uncertainty (1-sigma)   Units 
e .5803355541250101 4.0743e-06  
a 1.147909197269241 1.0754e-08 au
q .4817366771868004 4.6725e-06 au
i 23.15280921420491 0.00031315 deg
node 350.605146625671 4.9527e-05 deg
peri 241.8220304558112 0.0004433 deg
M 240.3842074194091 0.00012439 deg
tp 2459545.760795430360
(2021-Nov-27.26079543)
0.00015541 TDB
period 449.2206689072976
1.23
6.3129e-06
1.728e-08
d
yr
n .8013878810956728 1.1262e-08 deg/d
Q 1.814081717351682 1.6995e-08 au
  Orbit Determination Parameters
   # obs. used (total)      97  
   data-arc span      5855 days (16.03 yr)  
   first obs. used      1998-09-19  
   last obs. used      2014-09-30  
   planetary ephem.      DE441  
   SB-pert. ephem.      SB441-N16  
   condition code      0  
   norm. resid. RMS      .50575  
   source      ORB  
   producer      Otto Matic  
   solution date      2021-Apr-14 20:48:31  

Additional Information
 Earth MOID = .0200812 au 
 Jupiter MOID = 3.34828 au 
 T_jup = 5.236 
[ show covariance matrix ]

Ephemeris | Orbit Diagram | Orbital Elements | Mission Design | Physical Parameters | Close-Approach Data ]

Physical Parameter Table
Parameter Symbol Value Units Sigma Reference Notes
absolute magnitude H 21.3   n/a MPO308282  

[ show close-approach data ]
Ephemeris | Orbit Diagram | Orbital Elements | Mission Design | Physical Parameters | Close-Approach Data ]
ABOUT SSD CREDITS/AWARDS PRIVACY/COPYRIGHT GLOSSARY LINKS
FirstGov 2021-Sep-17 10:04 UT
(server date/time)  
NASA Home Page
Site Manager:   Ryan S. Park
Webmaster  Alan B. Chamberlin